Location: Holcomb Observatory
(44.4922°N, 73.1654°W)
Time: 06:21:47
(UTC-04:00)

Cosmos 2360 Rocket - Visible Passes

Search period start: 23 September 2014 00:00
Search period end: 03 October 2014 00:00
Orbit: 832 x 847 km, 71.0° (Epoch: 22 September)

Date Brightness Start Highest point End Pass type
(mag) Time Alt. Az. Time Alt. Az. Time Alt. Az.
23 Sep 4.9 01:14:52 14° NNE 01:14:52 14° NNE 01:15:35 10° NNE visible
23 Sep 4.8 02:56:38 11° NNW 02:56:38 11° NNW 02:57:14 10° NNW visible
24 Sep 5.0 00:59:36 12° NNE 00:59:36 12° NNE 01:00:01 10° NNE visible
24 Sep 4.8 02:41:22 11° NNW 02:41:22 11° NNW 02:41:53 10° NNW visible
25 Sep 5.1 00:44:20 11° NNE 00:44:20 11° NNE 00:44:27 10° NNE visible
25 Sep 4.9 02:26:06 11° NNW 02:26:06 11° NNW 02:26:30 10° NNW visible
26 Sep 5.0 02:10:49 11° NNW 02:10:49 11° NNW 02:11:05 10° NNW visible
27 Sep 5.0 01:55:32 10° NNW 01:55:32 10° NNW 01:55:39 10° N visible
01 Oct 4.8 06:09:28 10° N 06:12:12 14° NE 06:14:56 10° ENE visible
02 Oct 4.9 05:54:02 10° NNE 05:56:33 13° NE 05:59:03 10° ENE visible
